[[{"header":{"parameterUnit":"m.s-1","parameterCategory":1,"la1":30.2991,"la2":30.254,"lo1":-89.0895,"lo2":-89.0444,"dy":0.0017,"dx":0.0017,"nx":28,"ny":28,"refTime":"2026-03-02T09:00:00:Z","depth":0,"parameterNumber":2,"parameterNumberName":"U-component_of_WINDS"},"data":[0,0,0,0,0,0,0,0,0,0,0,0,0,0,0,0,0,0,0,0,0,0,0,0,0,0,0,0,0,0,0,0,0,0,0,0,0,0,0,0,0,0,0,0,0,0,0,0,0,0,0,0,0,0,0,0,0,0,-3.5844,-3.5844,0,-3.5865,-3.5866,-3.5866,-3.5739,-3.5735,-3.5732,-3.5728,-3.5751,-3.5754,-3.5758,0,0,0,0,0,0,0,0,0,0,0,0,0,-3.5696,-3.5699,-3.5844,-3.5844,-3.5845,-3.5865,-3.5866,-3.5866,-3.574,-3.5735,-3.5731,-3.5727,-3.5749,-3.5754,-3.5759,0,0,0,0,0,0,0,0,0,0,0,0,0,-3.5743,-3.57,-3.5844,-3.5784,-3.5779,-3.5865,-3.5866,-3.5866,-3.5741,-3.5735,-3.573,-3.5725,-3.5748,-3.5754,-3.5759,-3.5904,0,0,-3.5777,-3.578,0,0,0,0,0,0,0,0,-3.5741,-3.5749,-3.5793,-3.5788,-3.5783,-3.5794,-3.5821,-3.5879,-3.5742,-3.5755,-3.5728,-3.5722,-3.5769,-3.5773,-3.5789,-3.5905,-3.5906,-3.5778,-3.5782,-3.5784,-3.5786,0,0,0,0,0,0,0,-3.5737,-3.5747,-3.5852,-3.5793,-3.5787,-3.5757,-3.5757,-3.5832,-3.5792,-3.5754,-3.5744,-3.5749,-3.5766,-3.5784,-3.5789,-3.5907,-3.5778,-3.5783,-3.5787,-3.5789,-3.6145,-3.6151,0,0,0,0,0,0,-3.5742,-3.5745,-3.5852,-3.5853,-3.5748,-3.5764,-3.5765,-3.5796,-3.5791,-3.5785,-3.5753,-3.5743,-3.5776,-3.5782,-3.5789,-3.596,-3.5784,-3.579,-3.5793,-3.614,-3.6147,-3.6153,0,0,0,0,0,0,-3.5739,-3.5753,-3.5851,-3.5797,-3.5807,-3.5772,-3.5808,-3.5799,-3.5817,-3.5791,-3.5783,-3.5779,-3.5772,-3.5781,-3.5877,-3.5959,-3.5792,-3.5798,-3.6133,-3.6142,-3.615,-3.6302,0,0,0,0,0,0,-3.5736,-3.5752,-3.5807,-3.5799,-3.581,-3.5939,-3.5813,-3.5803,-3.5827,-3.5814,-3.5813,-3.5808,-3.5769,-3.5869,-3.5883,-3.5964,-3.5802,-3.6125,-3.6137,-3.6147,-3.629,-3.6315,-3.6337,0,0,0,0,0,-3.5731,-3.5848,-3.581,-3.5824,-3.5877,-3.5943,-3.595,-3.5902,-3.5835,-3.5889,-3.5873,-3.5808,-3.5948,-3.588,-3.5895,-3.5979,-3.612,-3.6133,-3.6146,-3.6279,-3.631,-3.6337,0,0,0,0,0,0,-3.5866,-3.5846,-3.5803,-3.5922,-3.5936,-3.5922,-3.5989,-3.5937,-3.597,-3.5956,-3.5895,-3.5896,-3.6004,-3.6,-3.5925,-3.612,-3.6022,-3.6039,-3.6118,-3.6147,-3.6171,-3.6169,-3.5807,0,0,0,0,0,-3.591,-3.5965,-3.5944,-3.6051,-3.606,-3.6024,-3.6051,-3.6014,-3.6025,-3.603,-3.6021,-3.6035,-3.6082,-3.6114,-3.6156,-3.6289,-3.6288,-3.6354,-3.6378,-3.6397,-3.6413,-3.6485,-3.6515,-3.6197,-3.6197,-3.6196,0,0,-3.6,-3.5996,-3.6035,-3.6078,-3.6084,-3.6144,-3.603,-3.6096,-3.614,-3.604,-3.6131,-3.6125,-3.6137,-3.6253,-3.6304,-3.6254,-3.6501,-3.6414,-3.643,-3.6435,-3.6502,-3.6532,-3.6559,-3.6206,-3.6204,-3.6203,0,0,-3.6196,-3.6198,-3.6288,-3.6297,-3.6308,-3.6283,-3.6306,-3.6301,-3.6293,-3.6383,-3.631,-3.6362,-3.6444,-3.6456,-3.6473,-3.6677,-3.6619,-3.6692,-3.6816,-3.6887,-3.6912,-3.6934,-3.7008,-3.7036,-3.6708,-3.6708,-3.6708,0,-3.6307,-3.6393,-3.6341,-3.6414,-3.6436,-3.6349,-3.644,-3.6451,-3.6476,-3.6494,-3.6438,-3.6541,-3.6542,-3.6661,-3.6711,-3.6727,-3.6751,-3.6692,-3.6913,-3.6934,-3.6954,-3.7024,-3.7052,-3.6717,-3.6716,-3.6715,-3.6714,0,-3.653,-3.6592,-3.6663,-3.669,-3.672,-3.6802,-3.6763,-3.68,-3.6761,-3.6743,-3.6837,-3.6836,-3.6878,-3.6903,-3.6865,-3.7018,-3.6987,-3.6923,-3.6823,-3.6994,-3.7059,-3.7086,-3.673,-3.6727,-3.6724,-3.6722,0,0,-3.681,-3.6809,-3.6836,-3.6848,-3.6855,-3.6902,-3.6981,-3.7022,-3.7056,-3.7076,-3.7142,-3.7214,-3.7156,-3.7176,-3.7138,-3.7201,-3.7365,-3.7129,-3.7129,-3.7174,-3.7535,-3.7584,-3.7616,-3.7326,-3.7331,-3.7335,-3.7535,0,-3.7003,-3.7137,-3.7093,-3.723,-3.7287,-3.7207,-3.7275,-3.7288,-3.7274,-3.7321,-3.7305,-3.7359,-3.7277,-3.7288,-3.7347,-3.7333,-3.7437,-3.7317,-3.7388,-3.7391,-3.7389,-3.765,-3.7701,-3.7889,-3.756,-3.7564,-3.7567,0,-3.7244,-3.7276,-3.7419,-3.7419,-3.7441,-3.7504,-3.7539,-3.7584,-3.7598,-3.7583,-3.7607,-3.7557,-3.7636,-3.7536,-3.7645,-3.7565,-3.7591,-3.7589,-3.7595,-3.7601,-3.749,-3.7663,-3.7948,-3.7977,-3.7606,-3.7603,-3.76,0,-3.7437,-3.7514,-3.761,-3.7623,-3.7625,-3.7671,-3.7674,-3.7682,-3.7711,-3.7742,-3.776,-3.78,-3.7822,-3.7855,-3.7818,-3.7748,-3.7933,-3.7829,-3.7924,-3.7925,-3.7967,-3.7965,-3.8261,-3.7983,-3.7982,-3.7982,-3.7981,0,-3.7656,-3.7747,-3.7697,-3.7756,-3.7856,-3.7806,-3.7907,-3.79,-3.7909,-3.7966,-3.7899,-3.7954,-3.7902,-3.7953,-3.7925,-3.802,-3.803,-3.8022,-3.8013,-3.8028,-3.803,-3.8045,-3.8032,-3.7989,-3.7987,-3.7986,-3.7985,0,-3.7887,-3.7857,-3.7957,-3.7951,-3.7952,-3.8027,-3.8022,-3.8077,-3.8059,-3.8133,-3.8147,-3.8119,-3.8176,-3.8143,-3.82,-3.8181,-3.8306,-3.8279,-3.8302,-3.8295,-3.8393,-3.8385,-3.871,-3.8751,-3.8446,-3.8448,-3.8451,0,-3.803,-3.8098,-3.8101,-3.8135,-3.8143,-3.8198,-3.8227,-3.818,-3.8214,-3.8236,-3.8289,-3.834,-3.8379,-3.8474,-3.8459,-3.8504,-3.8478,-3.8589,-3.8484,-3.8498,-3.8482,-3.8479,-3.8486,-3.8611,-3.8614,-3.8617,-3.8619,0,-3.8287,-3.8269,-3.8314,-3.8355,-3.8391,-3.8421,-3.8445,-3.8476,-3.843,-3.8472,-3.8529,-3.856,-3.862,-3.8672,-3.8711,-3.8714,-3.8661,-3.8653,-3.8677,-3.8694,-3.8705,-3.8702,-3.8361,-3.8645,-3.8643,-3.8641,-3.864,-3.8638,-3.8479,-3.8537,-3.8548,-3.8601,-3.8614,-3.8639,-3.8691,-3.8681,-3.8728,-3.8774,-3.8744,-3.8813,-3.8827,-3.8873,-3.8884,-3.8938,-3.8893,-3.8929,-3.8938,-3.8947,-3.8962,-3.8696,-3.8945,-3.8944,-3.8943,-3.8943,-3.8942,0,-3.8733,-3.8737,-3.8786,-3.8823,-3.8865,-3.8811,-3.8835,-3.8874,-3.8936,-3.8953,-3.8994,-3.9062,-3.9113,-3.9103,-3.915,-3.9196,-3.9172,-3.921,-3.9206,-3.9208,-3.8998,-3.8973,-3.9228,-3.9228,-3.9228,-3.9228,-3.9228,-3.9228,-3.8871,-3.8967,-3.8951,-3.9054,-3.9057,-3.9125,-3.9144,-3.9167,-3.9181,-3.926,-3.9302,-3.9296,-3.9303,-3.9351,-3.9396,-3.9392,-3.9413,-3.946,-3.9447,-3.9251,-3.9223,-3.9196,-3.9172,-3.9465,-3.9465,-3.9653,-3.9655,-3.9656]},{"header":{"parameterUnit":"m.s-1","parameterCategory":1,"la1":30.2991,"la2":30.254,"lo1":-89.0895,"lo2":-89.0444,"dy":0.0017,"dx":0.0017,"nx":28,"ny":28,"refTime":"2026-03-02T09:00:00:Z","depth":0,"parameterNumber":3,"parameterNumberName":"V-component_of_WINDS"},"data":[0,0,0,0,0,0,0,0,0,0,0,0,0,0,0,0,0,0,0,0,0,0,0,0,0,0,0,0,0,0,0,0,0,0,0,0,0,0,0,0,0,0,0,0,0,0,0,0,0,0,0,0,0,0,0,0,0,0,-0.7444,-0.7444,0,-0.7456,-0.7457,-0.7457,-0.7452,-0.7452,-0.7452,-0.7451,-0.7466,-0.7467,-0.7468,0,0,0,0,0,0,0,0,0,0,0,0,0,-0.7418,-0.7419,-0.7444,-0.7444,-0.7444,-0.7456,-0.7457,-0.7457,-0.7452,-0.7452,-0.7452,-0.7451,-0.7466,-0.7467,-0.7468,0,0,0,0,0,0,0,0,0,0,0,0,0,-0.743,-0.7419,-0.7444,-0.7444,-0.7444,-0.7456,-0.7457,-0.7457,-0.7452,-0.7452,-0.7451,-0.7451,-0.7466,-0.7467,-0.7468,-0.7482,0,0,-0.7471,-0.7471,0,0,0,0,0,0,0,0,-0.7429,-0.7431,-0.7444,-0.7444,-0.7444,-0.7452,-0.7453,-0.7465,-0.7452,-0.7449,-0.7451,-0.7451,-0.7462,-0.7463,-0.7467,-0.7483,-0.7484,-0.7471,-0.7471,-0.7472,-0.7472,0,0,0,0,0,0,0,-0.7429,-0.743,-0.7449,-0.7444,-0.7444,-0.7443,-0.7444,-0.7455,-0.7458,-0.7449,-0.7449,-0.745,-0.7462,-0.7466,-0.7467,-0.7484,-0.7471,-0.7472,-0.7472,-0.7473,-0.7512,-0.7512,0,0,0,0,0,0,-0.7427,-0.743,-0.7449,-0.7449,-0.7435,-0.7444,-0.7445,-0.745,-0.7458,-0.7458,-0.7451,-0.745,-0.7464,-0.7466,-0.7467,-0.7485,-0.7472,-0.7473,-0.7473,-0.7511,-0.7512,-0.7512,0,0,0,0,0,0,-0.7427,-0.7429,-0.7448,-0.7439,-0.7442,-0.7445,-0.745,-0.745,-0.7454,-0.7459,-0.7459,-0.7454,-0.7464,-0.7466,-0.7478,-0.7485,-0.7473,-0.7474,-0.7511,-0.7512,-0.7512,-0.7519,0,0,0,0,0,0,-0.7426,-0.7429,-0.7434,-0.744,-0.7442,-0.7458,-0.7451,-0.7451,-0.7456,-0.7455,-0.7462,-0.7463,-0.7464,-0.7477,-0.7479,-0.7486,-0.7475,-0.751,-0.7511,-0.7512,-0.7518,-0.752,-0.7521,0,0,0,0,0,-0.7425,-0.7437,-0.7435,-0.7437,-0.7449,-0.7459,-0.746,-0.7461,-0.7456,-0.7462,-0.7464,-0.7462,-0.7484,-0.7478,-0.7481,-0.7488,-0.751,-0.7511,-0.7512,-0.7518,-0.752,-0.7521,0,0,0,0,0,0,-0.7433,-0.7437,-0.7435,-0.7449,-0.7453,-0.7458,-0.7465,-0.7463,-0.747,-0.7469,-0.747,-0.7471,-0.7484,-0.7487,-0.7481,-0.7502,-0.7496,-0.7498,-0.75,-0.7502,-0.7503,-0.7502,-0.7476,0,0,0,0,0,-0.7436,-0.7443,-0.7447,-0.7458,-0.7461,-0.7462,-0.7467,-0.7466,-0.7472,-0.7474,-0.7478,-0.7483,-0.7491,-0.7497,-0.7504,-0.7519,-0.752,-0.7525,-0.7526,-0.7528,-0.7529,-0.7536,-0.7538,-0.7516,-0.7516,-0.7516,0,0,-0.7443,-0.7446,-0.7451,-0.746,-0.7463,-0.7471,-0.7464,-0.7473,-0.7479,-0.7476,-0.7487,-0.749,-0.7496,-0.7509,-0.7515,-0.7512,-0.7535,-0.7529,-0.753,-0.7531,-0.7538,-0.754,-0.7542,-0.7516,-0.7516,-0.7516,0,0,-0.746,-0.7463,-0.7472,-0.7476,-0.7481,-0.7481,-0.7484,-0.7488,-0.749,-0.7501,-0.7499,-0.7506,-0.7519,-0.7524,-0.7528,-0.7544,-0.7542,-0.7547,-0.7555,-0.7562,-0.7563,-0.7565,-0.7571,-0.7573,-0.7548,-0.7548,-0.7548,0,-0.7468,-0.7479,-0.7478,-0.7486,-0.749,-0.7486,-0.7495,-0.7499,-0.7507,-0.751,-0.7506,-0.7522,-0.7526,-0.754,-0.7544,-0.7547,-0.755,-0.7546,-0.7563,-0.7565,-0.7566,-0.7572,-0.7574,-0.7548,-0.7548,-0.7548,-0.7548,0,-0.7488,-0.7496,-0.7503,-0.7509,-0.7514,-0.7523,-0.7523,-0.7528,-0.7527,-0.7528,-0.7539,-0.7544,-0.7552,-0.7555,-0.7554,-0.7568,-0.7566,-0.7563,-0.7557,-0.7569,-0.7574,-0.7576,-0.7549,-0.7549,-0.7549,-0.7549,0,0,-0.7512,-0.7516,-0.7518,-0.7521,-0.7525,-0.7531,-0.754,-0.7546,-0.755,-0.7556,-0.7563,-0.7574,-0.757,-0.7575,-0.7575,-0.7581,-0.7593,-0.7577,-0.7577,-0.7579,-0.7608,-0.761,-0.7613,-0.7591,-0.7592,-0.7592,-0.7607,0,-0.7528,-0.7542,-0.7541,-0.7555,-0.7561,-0.7557,-0.7565,-0.7568,-0.7569,-0.7576,-0.7577,-0.7584,-0.758,-0.7582,-0.7588,-0.759,-0.7599,-0.7589,-0.7598,-0.7599,-0.7597,-0.7616,-0.7619,-0.7633,-0.7609,-0.761,-0.761,0,-0.755,-0.7554,-0.7568,-0.7571,-0.7574,-0.758,-0.7586,-0.7592,-0.7596,-0.7596,-0.76,-0.7599,-0.7607,-0.76,-0.7612,-0.7606,-0.7609,-0.7611,-0.7612,-0.7613,-0.7605,-0.7617,-0.7637,-0.764,-0.7613,-0.7613,-0.7613,0,-0.7565,-0.7575,-0.7584,-0.7586,-0.759,-0.7594,-0.7596,-0.7599,-0.7603,-0.7608,-0.761,-0.7617,-0.762,-0.7625,-0.7625,-0.762,-0.7637,-0.763,-0.7638,-0.7638,-0.7642,-0.7642,-0.7663,-0.7644,-0.7644,-0.7644,-0.7644,0,-0.7584,-0.7593,-0.7591,-0.7597,-0.7606,-0.7604,-0.7614,-0.7615,-0.7618,-0.7624,-0.7621,-0.7627,-0.7626,-0.7632,-0.7633,-0.7642,-0.7644,-0.7645,-0.7645,-0.7645,-0.7645,-0.7648,-0.7647,-0.7645,-0.7644,-0.7644,-0.7644,0,-0.7603,-0.7602,-0.7612,-0.7613,-0.7614,-0.7621,-0.7623,-0.7628,-0.7628,-0.7636,-0.7638,-0.7639,-0.7645,-0.7645,-0.7654,-0.7654,-0.7665,-0.7664,-0.7664,-0.7664,-0.7671,-0.767,-0.7695,-0.7698,-0.7677,-0.7677,-0.7677,0,-0.7615,-0.7622,-0.7624,-0.7627,-0.7629,-0.7634,-0.7638,-0.7636,-0.764,-0.7644,-0.7649,-0.7655,-0.766,-0.7671,-0.7672,-0.7678,-0.7678,-0.7686,-0.7679,-0.7678,-0.7678,-0.7677,-0.7678,-0.7687,-0.7688,-0.7688,-0.7688,0,-0.7637,-0.7636,-0.7641,-0.7645,-0.7649,-0.7652,-0.7655,-0.7658,-0.7657,-0.7661,-0.7667,-0.7671,-0.7679,-0.7685,-0.769,-0.7692,-0.769,-0.769,-0.7692,-0.7693,-0.7692,-0.7692,-0.7668,-0.769,-0.7689,-0.7689,-0.7689,-0.7689,-0.7653,-0.7658,-0.766,-0.7665,-0.7667,-0.767,-0.7675,-0.7675,-0.768,-0.7685,-0.7684,-0.7691,-0.7694,-0.7701,-0.7703,-0.7709,-0.7706,-0.7709,-0.771,-0.7711,-0.7711,-0.7691,-0.771,-0.771,-0.771,-0.771,-0.771,0,-0.7675,-0.7675,-0.768,-0.7684,-0.7688,-0.7684,-0.7687,-0.769,-0.7696,-0.7699,-0.7703,-0.771,-0.7716,-0.7717,-0.7722,-0.7727,-0.7726,-0.7728,-0.7728,-0.7729,-0.7714,-0.7711,-0.7729,-0.7729,-0.7729,-0.7729,-0.7729,-0.7729,-0.7687,-0.7695,-0.7694,-0.7703,-0.7703,-0.771,-0.7712,-0.7714,-0.7716,-0.7723,-0.7728,-0.7728,-0.773,-0.7735,-0.774,-0.774,-0.7743,-0.7746,-0.7746,-0.7732,-0.773,-0.7728,-0.7726,-0.7746,-0.7746,-0.776,-0.776,-0.776]}]]